Theta_e
335 335 335 334 334 333 333 332 330 330 329 329 328 325 330 333 331 330 329 329 329 330 329 329 328 327 328 328 328 331 332 331 332 331 331 331 331 331 329 329 328 329 331 332 331 330 329 329 328 328 327 326 326 326 327 327 326 322 318 314 312 309 307 306 307 312 316 319 320 320 319 318 319 319 319 319 319 319 319 319 319 319 319 319 319
335 335 335 334 333 333 334 333 332 331 330 329 329 328 329 331 331 330 330 330 330 330 329 329 328 327 327 329 329 332 333 333 332 332 332 332 331 331 330 329 328 328 329 331 331 330 329 329 328 328 327 326 325 326 327 326 325 325 324 319 317 315 312 308 306 310 313 315 318 318 317 317 318 319 319 319 318 318 319 319 319 319 319 319 318
334 335 334 334 333 334 334 334 333 333 331 330 331 330 329 330 331 330 329 330 330 329 329 329 328 327 327 327 328 329 329 331 332 332 333 333 332 331 329 329 329 328 328 329 329 330 330 329 328 328 328 327 326 326 326 325 324 326 326 323 322 323 320 314 309 308 307 307 312 313 313 315 315 316 318 318 317 318 318 318 319 318 318 318 318
334 335 334 334 334 334 334 334 334 333 332 331 331 331 331 332 332 331 329 329 330 330 329 330 329 327 327 327 327 327 327 328 330 331 333 333 333 332 330 330 329 328 328 328 328 329 329 329 328 328 328 327 327 326 326 325 325 326 327 326 326 327 325 321 314 310 306 303 306 307 307 310 311 310 313 316 317 317 317 318 318 318 318 318 317
334 334 334 334 334 334 334 334 333 333 333 333 332 332 332 333 332 332 331 330 330 330 330 330 329 328 327 326 326 327 327 327 328 329 331 332 333 333 331 330 330 329 328 328 328 329 329 329 328 328 328 327 327 326 326 325 325 325 326 327 328 327 326 323 319 314 310 307 304 304 305 306 306 306 307 310 312 314 316 317 318 317 317 317 317
334 334 334 334 334 333 334 333 333 333 333 333 333 333 333 333 332 332 332 331 331 330 330 330 329 329 327 326 325 326 326 326 326 327 329 331 331 332 332 331 330 331 329 329 328 328 330 329 328 328 328 327 327 326 326 326 325 324 325 328 328 328 326 324 321 318 315 312 309 307 305 304 304 305 303 305 309 312 314 315 316 318 317 317 317
333 333 333 333 333 333 333 333 332 332 332 333 333 333 333 333 332 332 333 332 332 330 330 330 329 329 327 326 325 326 326 326 326 326 327 328 329 330 331 332 331 331 331 331 330 329 329 329 328 328 328 328 327 326 326 327 325 324 324 327 328 327 325 325 324 321 318 316 314 311 308 306 305 304 302 303 306 308 311 312 314 316 317 317 316
333 332 333 333 333 333 332 332 332 332 332 332 332 332 332 332 332 332 333 333 332 330 329 329 329 329 327 326 326 326 326 326 326 326 326 326 327 327 329 331 331 331 331 332 332 330 329 329 329 328 328 328 328 326 325 327 327 325 323 325 328 326 324 325 325 324 321 319 316 314 312 310 307 305 303 302 302 303 306 309 312 314 315 317 317
333 332 332 332 333 332 331 331 331 331 332 332 331 332 332 332 332 332 332 332 332 331 330 329 329 329 328 327 326 326 326 327 327 326 326 326 326 328 330 331 331 331 332 331 332 331 329 329 329 329 329 328 328 327 326 326 327 326 324 324 327 326 324 324 325 325 324 322 319 316 315 314 312 309 306 304 301 301 303 305 308 310 311 314 316
331 331 331 332 332 331 331 331 331 331 331 331 331 331 331 331 331 331 331 331 331 331 330 329 328 328 329 328 328 327 327 327 328 327 327 326 326 328 330 330 331 331 331 331 331 332 331 330 329 329 329 329 329 329 327 327 327 327 326 323 325 326 326 325 324 325 326 324 321 320 318 317 316 312 309 306 303 302 301 302 304 304 304 309 315
331 331 331 331 331 331 331 331 331 330 330 330 330 330 331 331 331 331 330 330 331 331 330 327 326 326 327 328 328 328 328 328 328 328 327 328 327 327 329 331 332 332 331 331 330 330 332 332 331 331 331 330 329 329 329 327 328 329 329 326 325 325 326 326 324 324 326 326 324 323 322 320 320 316 312 310 307 304 303 303 303 302 301 303 309
330 331 330 330 330 330 330 330 330 330 329 329 329 330 330 330 330 331 330 330 330 329 328 327 325 325 325 326 327 327 327 328 328 328 328 328 328 328 329 330 331 332 332 332 331 330 330 331 332 332 332 331 330 330 329 328 328 328 330 330 328 326 326 327 325 324 324 326 326 326 325 324 322 318 313 311 311 310 307 305 304 304 302 300 302
329 328 328 328 328 328 328 329 328 328 329 329 328 329 329 329 329 330 331 330 329 327 327 327 327 327 327 327 327 325 325 326 326 328 328 328 328 328 329 329 330 331 331 331 332 331 329 328 329 330 329 330 330 330 330 329 328 328 328 330 330 329 328 327 328 325 323 324 326 327 327 326 324 321 316 313 314 315 314 312 310 307 304 301 300
326 325 325 325 325 325 326 327 327 327 328 328 328 328 328 329 328 329 330 330 329 328 327 327 329 330 330 330 329 327 325 325 325 326 327 328 328 328 328 328 328 328 328 328 328 329 328 326 326 327 327 329 330 330 329 329 328 328 328 328 329 330 329 328 328 328 325 323 324 326 327 327 325 323 320 317 316 318 318 317 315 311 308 305 303
324 323 322 321 321 322 324 325 325 326 328 328 327 327 327 328 327 328 329 328 328 328 328 328 329 329 329 329 330 329 329 328 327 325 325 326 327 327 328 328 327 326 326 326 326 327 327 326 325 324 325 326 327 327 328 327 328 328 328 328 329 329 330 329 329 329 328 325 323 323 325 326 324 322 321 320 319 320 320 320 319 316 313 312 310
323 322 320 320 320 320 322 323 323 325 326 327 327 327 327 327 327 327 327 328 328 328 328 328 329 329 329 329 328 328 329 330 330 328 326 326 326 327 328 328 329 327 326 327 327 326 326 326 326 325 325 326 325 325 326 327 326 327 326 327 328 328 329 329 329 329 328 328 327 324 323 323 323 322 321 320 320 321 321 321 321 320 318 317 316
322 321 320 320 319 319 320 321 322 323 325 326 327 326 326 327 326 326 326 327 328 329 328 328 328 327 328 329 329 328 329 329 330 330 329 328 327 327 327 328 329 329 329 328 327 326 327 328 328 327 327 328 327 326 327 327 327 327 327 327 327 327 327 327 328 328 328 328 329 328 326 324 324 323 322 322 321 321 322 322 322 321 321 320 319
321 321 320 320 319 319 319 320 322 322 322 324 325 326 326 326 326 327 326 326 327 327 328 327 327 327 327 328 328 328 329 329 329 330 330 329 329 328 328 328 328 329 329 329 328 327 327 327 328 327 327 328 328 327 328 328 328 328 329 329 328 327 326 326 326 327 327 327 328 329 329 328 327 326 325 324 323 323 323 323 323 323 323 322 321
321 320 319 319 318 318 318 320 321 321 321 322 324 324 325 325 326 326 326 326 327 327 327 327 327 327 327 327 326 326 327 327 328 329 330 329 329 328 326 326 327 328 329 328 328 328 327 327 327 325 326 326 326 327 328 327 328 328 327 327 327 327 327 326 326 326 326 326 327 327 328 329 329 328 328 327 327 326 325 325 324 324 324 324 323
319 318 318 318 317 316 316 317 320 320 320 321 322 322 323 324 325 325 326 326 327 327 326 326 326 327 327 327 326 325 324 324 324 327 329 329 328 327 324 323 324 326 327 326 325 326 326 326 326 326 326 327 327 326 326 326 326 326 325 326 327 327 327 327 327 327 327 326 326 326 327 327 328 328 328 328 328 327 327 326 325 325 325 325 325
318 318 317 316 315 314 313 315 317 318 319 319 319 319 320 323 324 324 323 323 323 325 325 325 325 326 326 327 326 325 325 324 323 325 328 329 327 325 325 323 321 320 320 320 322 323 323 323 324 324 325 327 326 324 324 326 325 324 325 326 326 326 327 328 327 328 328 327 327 327 326 327 327 327 328 328 328 328 328 327 327 327 326 325 325
317 317 316 315 314 312 310 311 314 315 316 317 318 318 319 321 323 321 319 319 319 321 323 325 325 325 325 325 326 325 326 325 324 324 324 325 323 322 324 323 317 315 314 315 317 318 319 321 322 323 323 324 324 323 324 325 323 323 325 325 324 325 327 328 328 328 327 326 326 326 327 328 328 328 328 328 329 329 328 328 328 328 327 326 326
317 316 315 314 313 310 308 309 311 312 313 315 316 317 318 320 320 318 317 317 317 317 320 323 323 321 321 320 320 321 322 322 323 325 324 323 322 320 321 318 315 313 313 313 313 313 314 315 316 318 320 321 322 323 324 324 323 323 323 322 322 324 326 326 325 326 325 325 325 325 327 329 329 330 330 329 329 329 329 329 329 329 328 328 328
316 315 314 314 312 310 309 309 310 310 311 312 313 315 317 318 318 317 316 316 316 316 317 318 317 316 315 315 316 316 317 316 318 322 324 322 321 320 318 315 313 313 313 312 312 311 311 311 310 311 313 315 317 319 320 320 320 320 319 318 319 320 322 322 321 323 324 325 326 326 326 327 327 328 328 328 329 329 329 329 329 329 328 327 328
314 314 314 314 313 311 311 312 311 310 309 309 311 313 315 316 316 315 314 314 315 315 314 314 314 314 314 314 314 314 313 312 313 316 320 321 321 319 317 316 314 312 312 312 312 310 310 309 309 308 309 310 311 312 313 313 314 314 315 314 314 315 317 317 317 318 320 322 323 324 325 325 325 325 325 326 326 327 327 327 326 326 326 326 326
314 315 315 314 314 313 313 313 313 312 310 308 308 311 313 314 314 313 313 313 314 314 313 313 312 313 313 313 313 313 311 311 311 313 316 318 319 318 316 316 315 313 313 312 311 311 309 308 308 308 307 308 309 309 309 310 310 311 312 312 312 312 313 313 313 313 315 317 317 317 318 318 319 320 320 320 321 321 322 321 321 321 321 321 321
314 315 315 315 314 314 314 314 314 314 313 311 308 308 311 312 313 312 312 313 312 312 311 311 311 311 312 312 312 311 311 311 312 312 313 315 317 318 316 316 314 314 313 311 310 310 309 307 306 307 307 306 307 308 308 308 309 309 310 310 309 309 310 310 311 311 312 312 312 312 312 312 312 312 312 313 313 314 314 314 315 315 315 315 316
313 313 313 314 313 313 314 313 314 314 315 314 311 308 308 310 312 312 312 312 311 309 308 307 308 309 309 310 311 311 310 310 310 310 309 311 314 316 317 316 315 314 313 312 311 309 309 307 306 305 305 305 306 306 307 307 307 308 308 309 308 308 309 309 309 309 309 309 309 310 310 310 310 310 310 309 310 310 310 311 311 311 312 312 312
313 313 312 313 313 313 313 312 313 314 315 316 314 311 310 309 309 311 311 312 311 310 308 306 306 306 307 308 311 311 310 309 309 309 308 308 310 312 314 315 316 314 313 312 312 310 308 307 306 304 303 304 305 305 305 306 306 306 307 307 307 307 308 308 308 308 308 308 309 309 309 309 309 309 309 309 309 309 309 309 310 310 310 310 310
313 313 312 312 313 314 314 313 313 313 314 315 315 314 313 312 311 310 311 312 312 311 310 308 307 307 308 308 311 311 309 309 309 308 308 308 308 309 310 312 315 315 314 312 311 311 309 306 305 303 301 301 302 303 304 304 305 305 305 306 305 305 306 307 307 308 308 308 308 308 308 309 309 309 309 309 309 309 309 309 309 309 309 310 310
313 313 313 312 313 315 316 316 314 313 313 314 315 314 314 314 313 313 312 311 312 312 311 310 309 309 309 309 311 310 309 308 308 308 309 308 308 309 308 309 312 313 314 312 310 310 309 306 304 302 300 299 300 301 301 301 302 303 303 304 304 304 305 305 305 306 307 307 307 308 308 308 308 308 308 308 308 308 309 308 309 309 309 309 309
313 314 313 312 313 314 316 316 316 315 314 313 314 314 314 314 314 315 314 312 313 313 312 311 311 311 310 310 310 309 308 309 308 308 309 308 307 307 308 308 309 310 312 312 310 309 307 305 304 302 300 299 300 299 299 299 299 299 299 300 300 301 301 302 303 303 304 305 306 307 307 307 307 307 307 307 307 308 308 308 308 309 309 309 309
315 315 314 313 314 314 315 316 316 316 316 315 314 313 314 314 314 315 314 314 314 314 312 312 312 311 311 311 310 309 308 309 309 308 308 308 307 306 306 307 307 309 310 310 310 309 305 303 303 302 300 300 300 299 299 299 298 299 299 299 299 299 299 299 300 300 301 302 303 303 304 305 306 306 307 307 307 307 307 307 307 307 308 308 308
316 316 316 316 315 315 315 315 316 316 316 317 316 315 315 315 315 315 314 314 314 314 314 314 313 311 310 310 310 309 308 308 308 308 308 308 308 307 307 306 306 306 307 307 307 307 306 303 303 302 300 301 301 300 299 299 299 300 300 300 299 299 298 299 299 299 298 299 299 299 300 300 301 302 303 304 304 305 305 306 306 306 306 307 307
317 317 317 317 317 317 316 316 316 317 316 317 317 317 317 317 316 316 315 314 314 314 314 315 315 313 311 311 310 310 309 308 307 307 308 308 308 308 306 305 304 305 306 307 308 308 307 305 303 304 302 301 301 300 300 301 301 301 301 301 301 300 300 299 299 299 298 298 298 298 298 298 298 298 298 299 300 300 301 302 303 304 305 305 306
318 318 318 319 318 318 317 317 317 318 318 317 317 317 317 317 317 317 316 316 316 315 315 315 314 314 313 313 312 311 311 310 308 307 307 307 308 308 306 304 304 305 307 308 309 308 308 306 304 303 303 302 301 301 301 302 302 302 302 302 302 302 301 301 300 299 299 298 298 297 297 297 297 297 297 297 297 297 297 298 299 299 301 302 303
320 320 319 319 318 318 317 316 317 318 318 318 318 317 318 318 317 317 317 317 317 316 316 316 315 314 314 314 314 312 311 311 311 309 308 307 307 307 306 304 304 306 308 309 308 309 309 309 306 303 302 303 302 301 301 302 303 303 303 302 302 301 301 301 300 299 299 298 298 297 297 297 297 297 296 296 296 296 297 297 297 297 297 298 299
319 319 319 318 318 318 316 315 316 318 318 318 318 318 318 318 317 317 317 317 317 316 317 317 316 315 314 314 314 314 313 312 312 311 310 308 307 307 307 305 304 306 308 308 308 309 310 309 307 305 303 304 304 303 302 302 302 303 303 303 303 302 301 300 300 300 299 298 297 297 297 297 297 296 296 296 296 295 296 296 296 296 296 297 297
319 318 318 318 318 317 316 316 317 318 318 318 318 318 318 318 318 317 317 317 316 316 317 318 318 316 315 314 314 314 314 313 313 313 312 309 308 307 307 306 304 304 306 307 307 309 310 308 308 307 305 304 304 303 302 301 302 302 302 302 303 303 301 301 300 300 299 298 298 298 297 297 296 296 295 295 295 295 295 296 295 295 296 296 297
319 319 318 318 318 318 317 317 317 318 318 319 318 318 318 319 319 319 318 318 318 317 318 318 318 318 317 316 315 315 315 314 313 313 313 311 309 308 307 306 305 303 304 305 306 308 309 309 308 307 306 305 304 303 303 303 304 303 301 301 302 303 302 301 301 300 299 298 298 297 297 296 295 295 295 296 296 295 294 295 295 295 295 295 296
318 317 317 318 318 318 318 318 318 318 318 318 318 318 319 320 320 320 320 319 319 319 319 319 318 318 317 317 317 317 317 317 315 314 313 312 311 309 308 307 305 304 304 305 306 308 309 310 309 307 307 306 305 304 304 303 303 302 301 300 301 302 301 301 302 301 299 298 297 296 296 296 295 295 296 297 297 295 295 296 296 295 295 295 296
317 317 317 318 318 318 318 318 318 318 319 319 320 319 320 320 320 320 320 320 320 320 319 319 319 318 317 317 318 318 318 318 316 315 314 314 312 310 309 308 307 305 304 305 306 308 309 309 309 307 307 307 305 304 303 303 301 301 301 301 301 301 301 301 302 301 299 297 296 295 296 296 295 295 296 297 296 296 296 297 297 295 294 295 296
317 318 319 319 319 319 319 319 319 319 319 318 318 317 318 318 318 319 319 319 320 320 320 320 320 318 318 318 318 318 318 317 316 315 315 315 314 312 309 309 308 306 305 305 305 306 306 307 306 305 305 306 304 303 303 302 301 301 300 300 300 300 300 300 301 301 299 296 295 295 296 296 296 296 296 296 296 296 296 296 295 294 295 295 296
319 319 320 320 320 319 319 318 317 316 315 313 312 312 312 313 315 316 318 319 319 319 319 319 319 319 319 318 318 318 318 317 316 315 315 315 314 313 311 309 307 305 304 304 304 304 305 305 305 303 303 304 304 303 302 301 301 300 300 300 300 300 299 299 299 299 298 295 294 295 296 296 296 296 296 296 296 296 295 294 294 294 294 295 296
318 317 317 316 316 314 313 312 311 310 310 309 309 309 309 309 310 311 313 315 318 319 319 319 319 319 318 318 318 317 317 316 315 314 314 314 313 312 310 307 305 303 303 304 304 304 304 304 304 303 303 303 303 302 301 299 299 299 300 299 299 298 298 298 298 297 296 294 294 295 296 296 296 296 296 296 296 296 295 294 294 293 293 294 295
313 312 311 310 310 309 309 309 308 308 308 308 307 308 308 307 308 308 309 311 314 316 318 318 318 318 318 318 318 316 316 315 315 314 312 312 312 310 307 304 302 303 303 304 303 303 303 303 303 302 301 301 300 300 299 298 298 298 298 298 297 297 296 296 295 294 294 294 294 295 295 296 296 296 296 296 296 296 295 295 294 293 293 294 294
309 309 308 308 308 308 308 307 306 306 306 307 307 307 307 307 307 307 308 309 310 313 316 317 318 318 318 317 317 315 314 314 314 313 311 310 310 307 303 302 302 302 303 303 302 302 302 302 301 301 300 299 299 298 298 297 296 295 295 294 294 294 295 295 295 295 295 295 294 294 295 295 295 295 296 296 295 295 295 295 294 293 293 294 295
308 308 308 308 307 307 307 306 306 306 307 307 308 307 307 307 306 307 308 309 310 312 315 316 317 316 316 315 314 313 313 312 312 311 309 308 307 304 302 302 302 302 302 302 302 302 302 301 300 299 298 297 297 296 295 294 294 294 294 294 294 295 295 295 295 296 296 295 294 294 294 295 295 295 295 295 295 295 295 295 295 294 294 294 295
309 308 308 307 307 307 307 307 307 307 307 308 308 308 307 306 306 306 307 309 310 313 314 314 314 313 312 312 311 311 310 309 309 308 306 305 304 303 302 302 302 302 302 302 301 301 300 300 299 297 296 295 295 294 293 293 292 293 293 295 295 295 295 295 296 296 295 295 294 294 294 295 295 294 294 294 294 294 294 295 295 295 295 295 295
308 308 308 308 308 308 308 308 308 307 308 308 308 308 308 307 306 305 306 308 311 312 312 311 311 310 310 310 309 309 308 307 306 305 303 303 303 303 302 302 302 302 301 300 300 299 298 297 296 295 294 294 293 293 292 292 292 291 292 294 294 294 294 295 295 295 295 295 294 293 294 294 294 293 293 294 294 294 294 295 295 295 295 295 294
307 307 308 307 307 307 307 307 307 308 308 308 308 308 307 307 306 305 305 307 310 311 310 309 308 308 308 307 307 306 306 305 305 303 302 302 302 302 302 302 301 299 298 297 296 295 295 294 294 293 293 293 293 292 292 292 291 291 291 293 293 293 293 294 294 294 294 294 294 293 293 293 293 293 293 293 293 294 294 294 294 294 294 294 294
Wind_Speed
7 8 8 7 7 7 7 7 7 6 6 5 4 4 4 3 2 2 3 3 3 4 3 2 3 4 6 8 9 9 9 9 7 7 8 8 7 7 6 6 5 4 5 6 5 5 5 5 5 5 4 4 4 4 4 3 2 2 3 4 4 4 4 4 4 4 5 5 6 5 5 6 6 7 7 7 8 8 9 9 9 9 9 10 10
7 7 7 6 6 6 6 7 7 7 6 5 5 5 5 3 3 2 1 2 2 3 3 2 2 3 5 7 8 8 9 9 8 8 9 8 7 7 7 6 5 4 5 5 5 5 5 5 5 5 4 4 4 5 4 4 2 1 2 2 3 4 4 4 3 3 4 4 5 4 4 5 5 6 6 6 7 7 8 8 8 8 9 9 9
7 6 5 5 5 5 6 6 7 7 6 6 6 6 5 4 3 3 2 2 2 3 3 2 2 2 3 5 7 7 7 8 8 8 8 8 8 7 7 7 5 5 5 4 5 6 5 5 5 5 5 4 4 5 5 4 3 2 1 1 2 4 4 4 3 2 3 3 3 3 3 3 4 5 5 5 6 6 7 7 7 8 8 8 8
6 5 5 5 5 5 5 6 6 7 7 7 7 5 4 4 3 3 4 6 5 5 4 3 2 2 2 4 6 6 5 6 7 7 7 7 7 7 7 7 6 5 5 4 5 6 6 5 6 5 5 4 4 5 5 4 3 3 3 3 2 3 3 4 3 2 2 2 2 2 2 2 3 3 4 4 5 5 6 6 6 7 8 7 8
6 6 7 6 5 6 6 6 6 8 8 7 6 4 3 3 3 2 4 6 6 5 4 3 2 2 2 2 4 6 6 6 6 6 7 6 6 6 7 7 6 6 5 5 5 6 6 5 5 5 6 5 5 5 5 5 4 4 5 6 4 3 3 4 3 2 2 2 2 2 1 2 2 2 2 3 4 5 5 5 6 6 6 6 7
7 6 6 5 5 6 6 6 6 6 6 6 5 4 3 3 3 3 3 4 4 3 3 3 3 3 3 2 3 5 7 8 7 6 6 6 6 6 6 7 7 6 6 5 5 5 6 5 4 5 6 6 6 6 5 5 5 5 5 7 5 3 3 3 3 2 2 2 2 2 2 1 1 1 1 2 3 3 4 5 5 5 5 5 6
5 5 4 5 6 6 5 5 6 6 6 5 4 3 3 3 3 3 3 3 3 2 2 2 3 3 3 3 4 4 6 8 8 9 8 7 7 6 7 7 7 6 6 6 5 5 6 5 4 4 5 5 5 5 6 6 5 5 5 6 5 3 4 3 3 3 3 3 3 2 2 2 1 1 0 1 2 3 3 4 4 5 5 5 5
3 3 4 4 5 5 3 4 5 5 5 4 3 2 3 3 3 2 2 2 3 2 1 2 2 3 4 4 4 4 4 6 7 9 10 9 9 8 7 7 7 7 5 5 6 5 5 5 5 4 4 4 4 4 5 6 5 4 5 6 4 4 5 4 3 3 3 4 4 3 2 2 2 2 1 0 0 1 2 3 4 4 4 5 5
2 2 3 4 4 3 2 2 3 4 4 3 2 3 4 4 3 3 2 1 1 1 1 2 2 3 4 4 4 5 5 5 6 8 10 10 11 10 9 9 8 7 6 5 5 6 5 5 5 5 5 4 4 4 3 4 5 5 5 5 5 4 5 5 6 5 3 4 4 3 3 3 3 2 2 1 1 1 2 2 3 3 3 4 5
2 2 1 2 3 2 1 1 2 2 2 2 2 4 5 5 3 2 2 1 1 1 2 2 3 3 3 3 4 4 5 5 6 7 8 10 11 11 10 10 9 8 7 6 6 6 5 6 6 6 6 5 5 4 2 2 5 6 6 5 5 6 6 5 7 7 5 3 3 3 3 4 3 3 2 2 1 1 1 1 2 2 3 4 4
2 3 2 1 1 2 1 1 1 0 0 0 1 3 4 5 3 2 1 1 2 4 5 4 4 4 4 3 3 4 4 5 5 5 6 8 9 10 10 10 10 9 9 9 8 6 4 5 5 5 6 6 5 5 3 2 4 6 6 5 5 5 6 6 7 8 7 5 4 4 4 4 4 3 3 3 2 2 2 2 2 1 2 3 4
5 5 4 3 3 2 1 1 1 2 2 1 1 2 2 3 3 3 2 1 3 6 7 7 6 5 5 5 5 4 4 4 4 4 4 5 5 7 8 9 9 9 9 8 8 7 5 4 4 4 4 6 6 6 5 3 3 5 6 6 6 5 5 6 6 7 7 6 5 5 4 5 5 3 3 4 3 2 2 2 2 2 2 3 4
7 7 6 5 4 3 2 1 1 2 1 0 1 1 1 1 2 3 4 3 5 5 6 7 6 6 5 4 5 5 5 4 4 3 3 3 3 3 3 4 5 5 6 4 2 3 5 7 7 5 4 5 5 6 7 5 4 5 6 7 7 6 6 6 7 7 7 6 7 6 6 6 6 5 4 4 4 4 3 3 3 3 3 3 4
7 7 7 6 6 5 4 3 2 1 1 1 1 2 3 2 1 2 4 4 5 5 5 8 7 6 5 3 4 6 6 6 5 5 4 4 3 1 1 2 2 3 2 1 2 3 0 5 7 6 5 5 5 7 8 8 6 5 6 7 9 8 6 7 8 8 7 7 7 7 7 8 7 6 5 5 5 5 5 5 5 4 4 4 4
6 7 7 6 6 5 5 5 4 3 3 2 2 1 2 2 2 2 4 4 4 3 3 7 7 5 4 4 3 3 5 6 7 8 8 6 5 3 2 2 1 1 1 1 2 3 2 2 4 5 6 8 10 9 8 8 6 6 6 7 8 9 8 8 8 8 8 7 6 7 8 9 8 7 6 5 5 5 5 5 6 6 6 6 6
6 6 5 5 5 5 5 5 5 5 4 3 3 3 2 2 1 2 3 4 4 2 2 5 6 4 3 3 2 3 3 3 4 6 7 7 5 4 4 3 3 3 3 2 3 4 4 3 3 5 6 8 11 10 8 7 7 7 8 8 8 9 10 9 9 9 9 9 7 7 9 9 9 9 8 7 5 5 6 6 7 7 7 7 7
7 6 4 4 4 4 4 4 4 4 4 4 4 5 4 3 3 3 2 3 5 4 3 2 4 5 4 2 1 3 1 1 2 3 3 2 2 2 3 3 3 2 2 3 3 4 3 1 2 4 4 4 6 7 7 7 6 6 8 8 8 9 10 9 9 10 10 11 11 11 11 10 10 10 10 10 8 7 7 7 9 9 9 8 9
7 5 4 3 3 3 3 3 3 4 5 5 6 5 5 4 4 4 3 2 4 5 4 2 1 3 4 3 2 2 1 1 2 2 2 1 2 2 2 4 4 5 5 4 4 3 2 1 1 2 1 1 2 2 2 3 2 2 4 5 7 8 9 9 10 10 12 13 14 14 13 12 12 12 11 12 12 10 9 9 11 11 11 10 10
6 5 4 3 3 3 2 2 2 2 4 4 5 6 6 6 5 5 5 4 3 2 3 3 2 2 2 2 1 3 2 0 1 1 1 2 4 5 7 6 5 6 7 6 5 4 3 3 3 4 3 3 2 3 4 4 3 2 1 0 2 4 4 5 7 10 13 16 17 16 15 13 13 14 15 16 15 14 12 12 13 13 12 12 11
6 5 4 4 3 3 3 3 2 2 3 4 4 6 6 6 6 6 5 4 4 3 2 2 3 3 2 2 2 3 3 1 2 2 2 2 3 5 9 11 9 9 8 6 6 6 5 4 4 3 3 4 3 4 5 5 4 4 4 4 3 2 2 0 2 4 7 10 12 14 15 15 15 15 17 18 18 18 16 15 14 14 14 15 14
6 6 6 5 4 4 4 3 3 3 4 4 4 5 5 5 6 7 6 6 6 4 4 3 3 3 2 2 1 1 2 3 2 2 2 2 3 3 7 12 14 13 11 10 10 9 8 7 6 4 2 2 3 4 5 4 4 4 6 6 5 5 4 2 2 1 1 1 3 5 8 11 14 15 17 19 19 18 18 17 16 17 17 18 18
7 7 6 5 5 5 4 3 3 4 4 4 5 5 5 5 6 7 8 9 8 6 5 5 4 3 2 2 2 2 3 4 3 5 4 4 4 4 6 10 11 12 14 18 17 15 15 14 12 10 7 3 2 3 4 4 5 5 5 7 6 6 6 4 5 4 3 3 2 2 3 3 6 8 11 14 17 18 18 17 16 16 18 19 19
8 8 7 6 6 6 5 5 5 4 4 4 4 4 5 5 6 7 7 8 8 7 7 7 6 6 6 6 6 5 4 4 3 4 5 5 6 6 8 11 12 12 14 18 18 17 17 17 17 16 14 11 7 6 5 6 7 7 7 8 8 8 7 7 7 6 4 4 4 4 4 3 2 2 3 5 9 13 16 15 14 15 17 19 19
9 8 7 7 7 7 7 8 7 6 6 5 4 4 4 5 5 5 6 7 7 7 8 9 9 9 10 9 9 8 6 5 4 3 4 6 8 8 9 11 12 12 11 13 15 15 16 16 17 19 19 17 15 13 12 11 11 10 9 10 9 8 7 6 7 6 5 4 4 5 5 5 4 4 4 3 2 6 10 11 12 13 14 15 16
10 9 8 7 7 8 8 9 9 8 8 7 5 5 4 4 4 4 5 6 7 7 8 9 8 9 9 9 9 8 8 7 5 4 4 7 9 9 9 9 10 10 9 9 11 13 14 14 15 17 18 18 18 17 16 15 13 12 11 11 10 9 7 6 7 7 6 5 5 5 5 4 4 5 5 4 1 2 5 6 8 9 9 9 10
9 9 7 7 7 8 8 9 9 10 10 9 7 6 5 4 4 5 6 7 6 7 7 7 8 8 8 9 9 9 10 9 7 6 5 6 8 10 10 9 9 9 8 8 8 10 12 13 13 14 16 17 16 16 16 14 13 11 11 11 10 9 8 7 6 6 5 5 4 4 4 4 3 3 3 2 1 2 4 5 6 7 8 8 9
8 8 7 7 6 7 7 7 8 9 10 10 9 8 6 5 6 6 6 6 5 5 6 6 7 7 8 9 10 10 11 10 9 7 5 5 6 10 11 9 7 7 7 8 9 9 9 10 13 14 14 15 15 15 14 13 12 10 9 10 11 10 8 7 6 6 5 4 3 3 3 4 4 4 4 3 3 4 6 7 8 9 10 10 11
8 7 7 6 6 6 6 6 7 7 8 9 10 9 8 7 6 6 6 6 5 5 6 6 6 7 7 8 10 10 10 10 10 10 9 8 8 9 9 8 8 6 5 6 7 8 7 7 11 13 13 14 14 14 14 13 11 10 10 10 11 10 8 7 7 7 6 5 4 3 3 4 4 4 4 4 4 4 5 6 7 8 9 10 11
7 7 6 6 5 6 6 6 6 6 7 7 9 9 10 9 8 7 6 6 6 6 7 6 6 7 7 8 9 9 9 10 10 11 11 10 9 8 6 6 7 6 5 4 5 6 7 7 8 10 12 12 13 13 13 12 11 11 10 10 10 10 8 6 6 6 5 4 4 3 3 3 3 4 4 4 4 4 4 6 6 7 8 9 10
7 6 6 5 5 5 5 5 5 5 5 6 6 8 9 9 8 7 6 6 6 6 7 7 7 7 7 8 8 8 9 9 10 10 11 11 10 7 6 7 6 5 6 6 4 5 6 7 8 8 10 11 11 11 12 11 10 10 10 10 10 9 7 6 6 6 5 4 3 3 3 3 3 3 3 4 4 5 5 6 7 8 9 9 10
7 6 5 5 4 3 3 3 4 5 5 5 5 5 6 7 7 6 6 5 5 5 5 5 6 6 6 7 7 7 8 8 8 8 9 11 11 10 8 7 7 6 8 8 6 4 4 5 6 7 8 10 10 10 10 9 8 8 8 8 8 7 7 7 6 6 5 4 3 3 3 3 3 4 4 5 5 6 7 7 8 9 9 10 10
7 6 6 5 4 3 2 2 2 2 3 3 3 3 4 4 4 4 4 4 3 3 3 3 3 4 4 4 5 5 6 6 7 7 8 9 11 11 12 11 10 9 9 9 8 6 4 5 5 5 8 10 10 10 10 10 9 9 8 8 7 7 7 7 7 6 5 4 4 4 4 4 4 5 6 6 7 7 7 8 8 8 9 10 10
9 7 6 5 5 3 2 1 1 1 1 2 2 3 3 3 3 2 3 3 1 1 2 2 2 2 2 3 4 4 4 5 6 7 7 8 9 10 12 12 12 11 9 10 10 8 6 5 5 5 7 8 8 9 10 10 10 10 9 8 8 8 9 9 8 7 6 5 5 5 5 5 6 6 7 7 8 8 8 8 8 8 9 9 10
9 8 6 4 3 2 1 1 2 3 3 4 4 4 4 4 4 3 4 4 4 4 3 1 1 0 1 2 2 2 2 3 4 5 6 6 6 7 9 9 11 11 11 10 10 8 7 5 4 4 6 7 7 8 10 10 9 9 9 8 9 9 10 10 9 9 8 7 6 6 7 7 8 8 9 10 10 10 10 10 10 10 10 10 11
8 7 6 3 2 1 1 2 4 5 6 6 5 5 6 6 6 6 6 6 6 6 6 4 4 4 3 3 3 2 2 2 2 4 4 4 4 6 7 8 10 12 11 10 8 7 7 6 4 3 4 6 6 7 9 10 10 9 9 8 9 10 11 11 11 10 10 8 7 6 7 7 8 9 10 11 12 13 13 13 13 13 13 13 13
7 6 6 5 4 3 2 4 5 6 8 7 7 8 10 10 9 8 8 9 9 9 9 8 7 7 7 6 6 5 4 4 3 4 4 4 4 5 6 8 9 11 11 9 7 7 7 6 4 4 3 4 5 7 8 8 9 10 10 10 10 11 13 14 14 13 12 10 9 8 7 7 8 9 11 12 13 14 14 15 15 15 15 15 15
7 6 6 6 7 6 6 6 7 9 8 8 7 9 12 15 14 12 11 11 11 11 11 11 10 10 10 9 8 8 8 7 7 6 6 6 6 6 7 7 8 9 8 8 7 7 6 6 5 4 4 3 3 6 7 6 6 7 9 11 12 14 17 17 17 16 14 12 12 12 11 11 12 13 13 13 14 14 14 15 15 15 16 16 16
7 7 7 8 8 8 9 9 9 9 9 10 10 10 12 14 14 14 14 14 13 13 12 13 13 13 14 13 11 11 11 11 11 10 10 9 9 8 8 7 8 8 7 7 6 6 6 6 6 5 4 3 2 3 6 7 6 6 8 8 9 13 17 18 18 17 16 15 17 18 18 19 19 19 18 16 14 14 14 14 15 15 16 16 17
7 6 7 7 7 8 9 10 10 10 10 11 12 11 11 12 12 13 13 14 15 16 16 15 13 13 14 15 14 13 13 13 14 14 13 13 12 10 10 9 9 8 7 5 5 5 6 6 5 4 4 3 2 1 5 8 6 5 8 8 6 8 13 17 17 15 15 17 18 20 23 25 24 23 23 20 17 15 14 13 13 14 14 15 16
7 5 5 6 7 8 9 9 9 8 8 8 9 10 10 10 10 9 10 11 13 14 15 14 12 12 13 14 14 14 14 15 16 16 15 15 15 14 13 12 11 10 7 5 4 4 5 5 4 4 3 2 1 2 4 5 3 4 8 10 8 8 11 14 13 12 14 15 15 19 21 23 24 23 22 19 17 18 17 13 12 12 12 14 15
7 6 7 7 8 8 8 8 8 7 6 6 7 7 7 7 7 8 8 9 10 11 12 12 11 11 11 11 13 14 15 15 16 16 16 16 17 17 16 14 13 12 9 7 6 5 4 4 3 3 2 2 1 2 2 3 3 5 8 9 9 9 12 13 10 10 14 16 17 21 22 21 23 22 16 12 14 18 18 14 11 12 12 13 13
8 7 8 8 8 7 6 6 5 5 4 4 4 5 5 6 6 6 6 7 7 8 9 10 10 10 10 12 14 14 14 15 14 13 15 17 18 19 19 17 15 14 12 10 7 6 5 3 3 2 1 1 0 1 2 3 4 5 6 6 8 9 11 13 10 8 12 15 18 22 22 20 21 20 14 12 13 15 15 11 11 13 13 12 11
7 7 7 6 6 5 4 4 3 3 2 1 1 1 2 3 4 5 5 5 5 5 6 7 8 8 8 11 12 11 12 12 10 9 12 15 16 18 20 19 17 16 14 11 9 7 5 3 2 1 1 1 1 2 2 3 4 4 5 6 7 8 9 10 11 9 10 16 19 19 19 17 15 15 14 13 13 14 14 13 14 14 12 11 11
7 7 7 6 6 6 6 6 6 6 6 6 5 4 4 3 3 4 4 5 5 5 5 5 6 5 5 7 9 10 10 11 9 7 9 11 14 17 18 18 17 16 13 11 9 7 5 3 2 2 2 2 2 3 2 4 5 6 7 7 7 8 9 10 11 10 10 16 18 16 16 15 12 11 14 13 11 13 16 18 17 16 13 12 13
9 10 11 10 10 10 10 11 10 9 9 8 7 6 5 5 5 5 5 5 5 5 6 6 6 5 4 6 9 11 11 11 9 7 7 8 11 14 16 17 18 16 13 11 9 6 5 3 3 3 4 3 3 4 5 8 8 7 8 8 8 9 9 9 11 13 16 18 15 13 16 16 11 10 14 13 11 11 15 17 19 19 16 14 14
13 14 14 13 13 12 11 10 10 9 8 7 6 6 5 5 5 5 5 5 5 5 6 7 6 6 5 6 9 10 11 10 9 7 7 7 8 11 14 17 17 14 11 9 6 4 4 3 3 4 6 6 6 7 9 11 10 8 8 10 10 10 11 13 15 18 19 16 11 11 14 15 12 12 14 13 12 13 14 17 21 21 17 13 14
13 13 12 12 11 10 9 8 8 8 7 6 6 6 6 6 5 5 6 6 6 6 5 6 6 7 6 7 8 8 9 8 7 6 6 5 6 11 15 16 14 11 8 7 5 4 3 4 5 6 7 7 7 8 10 11 10 10 10 12 12 12 12 14 15 15 14 11 8 9 14 14 13 13 14 13 14 16 16 17 20 20 14 11 12
12 11 11 10 9 8 8 8 8 8 7 7 6 6 7 7 6 5 5 6 6 6 5 5 5 5 5 5 5 6 6 6 6 5 4 3 7 12 15 13 11 8 6 5 4 4 5 5 6 6 7 7 8 9 10 9 9 9 9 10 11 10 10 12 12 12 11 9 8 9 14 14 11 12 15 15 16 17 16 16 16 15 12 10 10
11 10 9 8 7 7 6 6 7 7 7 6 6 6 7 8 7 6 6 6 6 6 5 5 4 4 3 3 4 5 6 6 5 4 1 4 9 11 11 10 8 6 4 4 4 5 6 6 6 7 8 9 9 9 9 9 8 7 7 8 8 8 10 12 12 12 11 11 10 11 13 13 10 12 16 16 17 17 17 15 13 12 11 10 10
10 9 8 7 6 5 4 4 4 4 4 4 4 6 7 7 7 7 6 6 5 5 4 4 4 4 4 4 5 6 6 5 5 3 3 5 7 8 7 6 5 4 4 4 5 6 6 7 7 8 9 9 9 9 9 9 9 8 8 9 10 10 12 12 13 13 14 12 9 9 12 12 11 13 15 17 17 16 14 12 11 10 11 12 13
8 8 7 6 5 4 3 2 2 2 2 2 3 5 5 5 6 7 6 5 4 3 3 3 3 4 5 4 4 4 4 3 3 4 5 6 6 5 4 3 2 3 3 3 4 5 5 6 7 8 8 9 10 10 10 11 11 11 11 11 11 12 13 14 13 13 12 9 7 9 13 16 15 14 15 16 15 12 11 11 12 13 14 15 16
Wind_Direction
184 175 174 186 196 192 190 190 179 177 178 173 176 177 167 148 132 150 161 162 167 162 140 111 111 108 133 174 193 188 184 187 183 177 179 188 206 223 231 230 225 198 181 189 200 200 198 197 199 193 187 189 182 198 243 273 321 352 32 45 52 53 51 57 61 77 89 92 89 81 86 90 88 90 91 95 98 99 101 102 106 105 107 111 107
196 186 184 192 205 199 194 195 187 186 189 180 177 181 186 176 152 160 163 159 180 185 171 131 116 109 130 166 189 190 187 190 187 186 186 190 206 221 232 235 230 211 191 189 195 196 202 204 205 206 201 201 196 193 226 262 272 296 7 19 31 34 34 33 40 75 87 89 98 96 96 97 97 101 99 101 104 103 105 109 111 109 112 113 108
206 190 189 207 214 203 198 200 197 193 191 186 183 178 183 191 189 188 190 213 236 225 208 182 147 126 132 162 185 194 194 194 191 190 191 196 208 219 234 240 234 220 205 198 185 184 199 210 207 210 211 209 205 198 214 253 264 259 289 334 356 4 7 9 17 50 67 75 92 98 99 100 105 111 106 104 107 109 109 111 114 112 110 108 107
220 202 201 214 218 213 208 206 203 196 192 192 193 190 192 203 212 204 202 216 241 252 237 221 200 178 155 168 188 200 198 193 195 198 197 200 208 217 230 239 243 233 217 206 183 179 190 204 208 212 218 223 220 210 215 239 257 261 266 268 291 330 343 344 346 18 35 50 66 72 88 97 103 109 113 114 113 114 112 110 115 116 114 112 111
228 213 211 216 213 214 212 212 206 196 197 199 200 206 211 225 241 237 217 220 238 254 247 236 228 216 193 180 193 206 208 201 202 207 204 201 209 221 229 235 242 242 232 219 194 184 191 199 203 207 217 224 224 225 226 228 235 243 258 265 273 298 333 336 320 334 8 17 31 30 47 76 87 95 106 118 119 120 119 118 117 118 118 118 119
231 219 221 222 206 204 207 213 209 199 205 211 215 224 230 243 248 242 229 227 237 249 256 247 237 225 213 204 201 209 212 213 214 213 212 207 211 223 232 237 239 241 239 234 219 197 200 208 203 202 211 219 223 230 232 232 236 232 244 263 268 280 316 338 331 317 328 339 351 353 3 36 59 73 77 114 129 130 130 130 125 124 125 124 127
242 222 216 215 203 203 206 211 208 205 217 227 232 242 244 248 246 236 229 237 242 249 264 247 237 230 224 218 211 212 211 215 216 212 212 214 219 225 229 238 241 242 238 230 231 219 211 216 215 207 206 214 222 227 228 230 240 234 244 266 266 285 305 315 342 333 322 319 313 318 340 349 358 11 8 120 139 140 144 148 140 135 136 133 133
255 227 214 218 212 214 219 215 205 200 211 223 232 242 245 244 239 229 218 233 239 242 257 241 233 224 216 211 213 220 216 217 218 215 215 217 224 229 226 231 235 242 244 227 228 237 235 225 222 223 211 214 220 219 221 224 234 237 245 261 265 298 301 288 305 320 334 333 308 289 311 327 330 337 338 2 151 167 162 162 158 153 149 144 140
231 215 223 241 239 236 236 205 192 185 187 199 224 243 246 244 239 233 216 219 234 236 238 222 213 212 208 204 208 216 217 220 223 225 225 224 231 236 232 231 232 240 255 246 231 237 249 242 233 235 229 223 227 227 223 218 226 231 239 245 243 266 279 276 285 284 303 337 327 294 290 295 308 320 317 306 296 223 188 177 174 170 169 163 154
184 159 183 249 245 228 143 141 165 163 169 194 229 245 249 250 241 243 242 219 245 245 235 217 198 201 196 187 193 202 210 215 222 231 236 235 239 244 243 240 236 236 246 253 245 238 245 248 242 240 243 241 237 245 262 233 220 218 227 233 224 234 246 257 273 273 270 300 323 319 304 296 289 286 289 290 291 281 250 217 196 189 187 183 173
129 120 125 157 174 165 152 180 207 227 300 257 234 232 240 246 241 246 247 205 231 231 223 214 202 198 192 185 183 191 202 210 220 234 243 244 243 244 247 247 242 236 240 247 249 245 239 244 244 238 247 254 248 253 272 273 238 222 217 221 221 233 241 243 257 268 268 272 291 308 322 325 311 279 268 280 285 284 280 256 236 241 220 201 194
110 111 111 114 119 132 151 214 273 287 292 294 247 222 217 230 224 213 189 177 238 226 206 202 202 199 199 203 203 197 196 200 214 234 247 253 252 249 247 249 249 244 245 248 243 241 238 250 268 263 266 271 267 265 267 272 267 251 237 229 225 231 244 247 246 257 266 263 264 280 300 319 331 310 271 273 278 269 273 271 253 255 253 227 216
103 102 99 90 89 87 62 36 335 308 300 227 218 176 115 146 187 179 159 172 242 235 198 195 198 200 201 210 219 220 218 208 205 220 243 249 247 254 254 252 250 237 236 236 226 250 251 252 264 277 282 280 277 267 256 246 235 242 253 255 252 243 240 249 248 249 258 253 248 261 278 295 316 325 304 286 277 267 262 261 258 259 260 247 232
103 101 94 81 73 65 55 52 42 41 66 82 180 150 124 124 170 180 154 174 238 255 205 200 207 209 206 213 225 231 237 233 223 216 221 229 221 211 205 182 169 171 190 174 82 57 295 248 257 266 275 279 281 271 261 256 243 230 238 253 264 264 250 242 245 249 259 259 253 258 266 279 293 304 302 294 288 279 265 258 258 261 262 254 248
114 108 91 77 66 57 54 53 49 53 64 64 72 112 131 138 158 183 156 164 224 262 203 208 220 216 212 224 229 233 233 229 225 223 222 226 226 231 231 201 197 244 271 11 49 46 26 317 287 272 264 261 263 267 272 275 271 259 248 244 254 265 267 259 253 251 254 257 256 257 261 268 277 281 281 279 284 289 283 274 267 261 258 254 249
124 112 90 78 68 58 51 44 40 48 58 63 70 75 83 106 113 144 156 168 192 195 174 207 221 210 217 236 227 238 235 212 217 226 228 231 234 244 249 252 284 297 305 334 328 319 323 322 311 301 283 261 256 259 271 284 292 285 271 257 247 252 263 271 275 270 258 249 241 240 245 253 264 271 272 270 270 278 286 289 284 274 261 253 250
128 117 97 82 66 54 44 33 30 47 60 62 69 73 73 79 79 86 130 182 181 172 165 201 220 210 221 252 241 251 256 141 216 220 218 235 240 239 254 280 316 334 6 17 337 313 315 294 291 304 294 258 247 247 263 284 302 294 272 261 252 246 253 263 271 274 272 265 256 247 240 239 248 256 266 271 269 268 272 281 286 284 275 260 250
129 120 102 83 56 37 24 21 28 54 67 62 62 67 69 69 72 76 82 147 163 165 165 156 208 205 220 249 290 313 357 120 233 203 144 89 52 65 55 34 33 45 56 61 50 37 47 67 19 352 305 250 249 258 302 319 317 275 251 257 251 239 242 250 253 258 266 269 265 259 249 242 244 246 253 259 258 257 261 269 275 278 280 273 258
123 117 103 88 53 29 13 20 40 62 68 59 58 63 63 61 65 74 77 89 110 127 153 175 204 192 211 236 307 356 17 26 271 261 173 110 71 67 63 53 60 73 70 71 73 68 64 57 40 22 357 343 355 14 30 45 54 69 105 339 260 233 237 254 260 261 261 259 257 257 255 251 249 247 249 251 249 248 248 253 261 264 268 272 269
120 117 111 100 66 37 18 18 29 49 55 51 56 61 58 59 68 77 81 85 85 75 102 170 204 192 211 244 288 339 15 42 246 250 230 141 101 83 75 68 73 87 88 80 72 67 56 43 38 21 352 354 21 39 46 57 66 62 59 54 47 49 50 4 263 274 267 259 256 256 257 255 251 251 256 258 252 246 244 247 252 255 258 264 268
123 123 121 106 72 43 22 13 21 36 46 47 52 56 58 66 69 72 78 82 80 76 84 102 137 153 181 213 238 294 81 104 150 143 111 120 128 110 93 83 74 73 84 89 81 72 67 59 53 53 29 359 25 49 47 51 64 58 55 62 65 60 54 100 148 156 240 237 254 269 272 262 251 251 258 262 259 253 253 255 254 254 258 262 260
131 129 123 103 71 47 36 37 36 31 40 45 48 53 58 67 69 74 78 74 70 70 84 100 110 118 120 113 111 131 129 116 118 120 104 99 112 107 99 97 84 70 74 83 82 76 76 75 72 70 69 69 75 62 51 54 68 67 68 75 75 68 62 80 106 109 112 106 80 40 6 307 269 259 259 261 262 260 260 262 260 257 258 262 260
140 134 123 98 71 61 66 74 65 48 44 43 51 62 65 68 72 76 72 62 62 69 82 95 99 101 101 95 90 90 97 89 88 127 130 123 124 114 101 102 100 90 81 80 77 73 72 71 71 74 76 77 82 87 81 78 84 86 81 79 79 78 79 83 91 94 98 94 74 70 75 58 10 329 289 271 261 258 261 265 267 263 259 263 263
144 136 123 97 76 79 85 83 77 68 62 54 58 75 84 86 82 71 61 58 67 77 86 94 96 97 96 94 90 85 83 80 74 95 129 134 132 122 116 113 104 99 95 86 77 70 67 65 67 74 79 81 85 92 96 93 96 98 93 90 91 90 89 89 89 89 95 98 84 78 84 78 54 46 49 36 280 255 259 263 267 268 268 268 265
148 140 126 105 90 91 89 83 79 73 70 71 74 81 89 93 88 79 78 80 84 88 92 94 95 95 95 91 87 82 81 84 89 96 113 133 134 125 120 119 114 111 104 92 84 73 65 62 63 69 76 82 86 89 91 91 93 97 98 99 97 95 97 99 96 96 97 92 84 73 68 67 51 43 50 52 35 267 262 263 267 273 277 276 270
152 144 131 115 103 98 91 84 79 71 65 66 70 78 83 85 88 92 99 99 96 96 96 95 96 97 98 96 91 88 86 86 93 106 125 143 142 135 127 116 113 116 107 93 89 79 66 59 58 63 71 78 84 87 87 87 87 89 94 94 88 86 88 89 91 94 89 74 59 43 32 31 27 18 21 15 328 288 280 279 280 283 284 285 285
156 149 137 125 112 102 96 90 84 74 64 59 62 70 78 88 96 97 98 95 90 93 95 100 103 102 105 103 96 92 89 87 87 92 114 143 146 142 139 131 119 113 111 101 87 75 70 65 59 58 66 74 79 83 83 83 83 83 86 87 82 77 73 71 70 66 63 60 44 19 357 350 351 349 344 331 309 292 289 287 287 289 290 291 292
152 147 139 129 117 110 105 97 90 81 70 62 61 65 70 80 93 96 91 83 76 78 82 93 105 106 111 110 101 94 87 85 86 87 99 120 143 154 153 147 140 130 122 113 94 76 66 68 65 57 61 73 79 82 82 80 80 77 75 77 75 70 64 61 60 56 54 54 41 20 354 339 338 340 341 340 332 318 306 300 298 297 297 297 297
150 144 141 135 120 109 105 99 92 86 79 71 66 65 64 68 80 88 90 85 77 73 73 80 95 106 114 114 106 99 93 88 87 88 89 98 126 156 177 174 157 148 142 125 101 83 62 57 66 58 57 69 76 79 79 76 75 74 71 69 68 64 57 49 52 54 52 48 38 25 9 350 341 340 338 335 336 334 323 316 316 313 309 307 303
156 145 139 139 131 111 99 92 86 81 81 80 72 65 62 62 68 77 84 87 81 76 75 79 87 95 106 109 105 102 101 96 90 87 85 84 94 117 154 180 182 155 142 131 102 84 69 60 65 61 58 65 70 74 76 73 71 71 69 67 65 62 54 48 49 49 48 46 39 27 12 355 345 339 333 328 324 323 321 319 318 315 312 309 305
163 156 142 141 144 134 101 81 78 77 81 91 84 70 64 59 60 66 73 79 83 83 84 88 90 92 100 105 104 103 103 100 94 89 86 85 85 86 99 135 157 142 134 134 119 97 83 75 73 69 68 71 71 70 71 69 66 66 65 64 64 59 51 48 47 45 43 39 30 19 5 353 341 332 330 328 322 319 316 314 313 310 308 307 305
168 168 158 149 150 152 133 98 78 72 74 87 87 72 64 57 54 53 49 58 80 90 87 95 100 102 113 114 112 109 102 101 104 101 96 92 90 89 89 96 115 124 123 122 118 113 103 93 90 83 76 75 72 67 66 62 58 57 55 54 54 51 45 39 31 25 21 12 5 356 343 334 325 320 319 320 319 317 313 310 308 306 306 306 305
169 174 177 170 163 166 169 186 267 322 3 23 29 23 26 29 29 17 0 3 28 56 62 91 113 117 127 129 125 120 109 106 112 113 113 106 95 94 94 93 101 110 111 110 113 120 119 108 105 93 78 73 66 61 60 57 54 53 50 47 45 44 42 37 22 8 359 346 334 325 317 311 308 304 303 305 306 306 305 303 300 298 297 297 298
178 184 190 186 175 176 197 261 296 315 329 339 347 348 348 344 340 339 328 318 306 302 307 294 243 194 161 165 157 143 129 122 125 128 128 123 110 104 102 103 106 108 109 110 113 123 132 130 123 103 81 75 65 53 48 46 48 51 49 45 43 39 36 36 26 7 357 348 332 320 312 306 303 300 296 294 294 294 294 294 292 290 288 286 286
193 197 201 208 217 199 226 294 307 330 342 341 334 328 327 324 320 318 311 304 297 290 286 279 268 273 261 229 221 219 199 178 169 162 154 145 137 127 117 113 114 113 112 112 112 121 135 138 137 125 91 74 64 49 40 36 35 38 37 34 32 28 22 23 21 8 359 354 345 332 323 316 313 312 308 302 297 294 292 290 289 287 284 283 281
203 207 209 217 228 234 275 302 304 313 323 324 316 307 306 308 308 303 296 297 296 292 290 286 273 268 263 250 248 254 245 226 215 203 193 183 169 157 143 131 127 123 118 114 111 118 131 135 135 134 111 82 63 47 38 30 24 23 22 18 16 16 11 10 10 5 359 356 353 344 332 325 324 323 320 314 307 301 297 295 292 289 286 283 281
212 211 213 220 230 236 246 269 283 291 299 302 301 298 297 299 299 292 287 289 291 290 291 292 283 271 263 254 252 257 252 241 234 231 224 214 203 191 176 159 151 142 128 121 116 115 123 131 137 132 116 105 68 38 31 28 21 15 10 5 3 3 2 2 2 359 356 353 348 343 337 332 330 327 322 317 311 306 300 297 294 291 289 286 283
220 217 219 224 230 230 229 239 258 275 286 290 296 301 299 295 290 283 280 280 282 286 294 297 290 277 267 259 255 255 252 248 248 249 244 233 223 213 202 188 178 167 155 144 135 128 128 130 135 138 131 125 99 35 21 19 20 15 7 359 352 352 354 355 355 352 350 347 342 339 337 334 332 331 327 322 317 311 304 297 294 291 289 286 284
215 214 217 221 226 229 232 239 251 268 277 281 291 299 298 294 288 281 277 275 277 285 294 297 293 282 272 265 263 263 260 253 252 255 251 240 233 228 223 217 204 190 177 166 157 147 143 139 137 143 144 128 107 41 10 13 16 13 7 0 345 341 345 346 347 345 343 342 339 337 335 334 334 334 332 330 328 324 317 303 293 288 285 284 282
204 212 224 235 240 239 240 245 252 263 272 278 285 288 288 291 292 289 283 277 277 282 286 289 289 283 275 271 269 269 269 263 256 256 253 245 241 236 230 225 216 205 194 183 186 173 154 151 146 143 149 139 94 22 9 14 11 353 356 353 340 333 336 338 338 336 337 339 336 333 333 331 333 335 335 333 330 330 329 319 304 292 282 280 280
206 221 233 238 238 236 237 241 246 254 268 278 278 277 280 284 285 284 284 281 279 279 281 283 287 288 284 280 278 277 279 275 265 259 257 253 250 244 238 233 221 212 206 197 196 196 187 180 164 154 166 161 93 9 357 3 350 337 341 343 336 330 331 332 328 323 330 336 335 331 330 327 329 333 335 327 321 327 333 330 314 298 285 279 279
213 222 226 225 224 225 226 226 229 236 249 261 260 262 270 273 274 278 282 282 279 277 281 283 288 295 291 279 276 277 279 281 276 267 260 257 253 249 248 247 237 224 214 204 201 208 217 216 184 173 221 217 75 350 325 322 328 327 329 332 329 328 330 330 327 320 325 333 334 329 325 323 325 328 328 320 316 325 330 321 306 298 288 277 276
200 197 195 198 198 196 189 179 178 179 177 177 194 272 289 283 288 295 294 292 288 281 282 283 288 299 293 277 276 280 284 294 300 281 263 259 255 249 247 248 245 235 223 214 215 218 216 210 176 175 254 246 252 297 307 306 313 318 320 320 322 327 330 325 322 318 318 327 330 324 318 319 320 320 319 316 313 317 318 312 309 307 294 276 273
182 173 163 161 158 147 135 129 123 117 110 99 88 74 53 33 2 336 318 306 301 293 288 290 294 305 304 291 295 300 304 313 317 293 270 266 258 247 240 237 233 227 221 221 225 225 222 220 217 234 260 256 258 275 288 305 312 313 313 315 316 321 320 312 310 306 306 320 325 318 310 313 313 309 312 311 304 306 311 313 316 314 302 282 272
154 144 136 133 128 122 117 113 108 103 96 87 76 64 45 32 18 0 343 322 305 294 291 296 302 307 306 301 306 312 315 319 321 309 292 278 258 243 232 224 216 212 216 222 225 234 244 250 249 257 267 266 261 267 286 305 315 314 311 313 313 311 308 303 301 301 302 311 317 310 303 306 307 303 305 306 299 297 304 307 311 315 310 291 272
133 126 122 119 115 113 110 106 99 91 85 76 62 50 37 23 10 356 346 336 318 298 289 291 294 296 299 299 303 311 315 316 317 314 306 288 258 232 215 206 202 203 210 218 221 233 249 261 261 257 263 264 261 275 292 303 308 305 300 303 305 303 300 297 298 300 301 303 305 302 299 301 306 302 299 301 299 298 299 300 305 314 313 290 270
127 123 120 116 113 111 107 99 92 83 76 71 62 54 44 30 17 0 347 340 332 320 304 296 292 292 297 300 303 310 315 316 316 315 309 286 240 210 196 191 192 196 201 207 214 225 244 262 264 259 262 268 272 285 295 298 296 293 294 298 299 298 297 297 297 297 296 289 285 292 295 297 303 301 297 299 299 298 299 299 303 311 309 283 270
131 127 124 120 115 112 107 98 90 83 80 80 76 64 51 41 33 19 3 354 350 346 336 325 317 313 315 318 321 332 342 342 336 329 310 246 201 188 184 183 186 190 196 206 224 248 266 271 273 275 280 287 291 292 294 294 290 291 295 295 296 295 294 295 294 292 291 282 276 288 292 293 298 298 297 301 301 297 298 298 300 305 299 279 269
136 134 129 124 120 114 109 99 87 80 79 79 70 53 42 37 37 36 25 12 5 4 0 354 352 352 356 14 24 24 23 18 10 9 26 183 181 180 182 184 182 186 204 233 254 270 280 282 287 291 293 297 299 299 302 302 299 300 296 291 296 300 296 296 295 294 295 290 285 290 289 287 295 299 297 300 298 295 296 296 296 297 293 286 280
144 142 135 130 125 116 104 88 74 68 65 60 48 36 30 30 33 36 33 22 11 10 16 22 32 47 56 57 52 44 40 36 36 62 121 163 175 178 180 182 186 207 234 258 273 283 292 297 300 301 301 304 306 308 309 306 304 305 296 290 299 301 295 293 295 297 297 291 288 294 291 290 300 302 300 301 297 292 291 291 292 293 295 298 298
147 144 137 130 124 115 101 69 45 38 36 34 26 24 23 25 29 31 32 30 17 15 37 56 76 88 83 69 62 63 71 79 96 126 145 162 173 174 169 164 182 225 251 271 289 299 303 305 304 304 305 308 310 309 305 300 299 299 291 285 289 291 288 289 292 295 295 290 294 300 294 295 302 302 300 301 299 294 291 291 292 293 294 296 296